EA3E-2 Weather Reports


time (UTC)temp
F
wind
direction
speed
knots
gust
knots
rain 1hr
in
rain 24hr
in
rain mn
in
humidity
%
barometer
mb
20260506164001 57 63 2.6 5.2 0.00 0.81 0.81 88 1011.6
20260506163101 56 79 3.5 7.8 0.00 0.81 0.81 88 1011.6
20260506161301 57 71 7.0 10.4 0.35 0.81 0.81 87 1011.4
20260506160402 56 98 7.8 13.0 0.69 0.81 0.81 87 1011.4
20260506155501 56 89 8.7 13.9 0.69 0.81 0.81 89 1011.2
20260506154601 55 90 11.3 19.1 0.69 0.81 0.81 89 1011.2
20260506153701 54 62 9.6 16.5 0.69 0.81 0.81 90 1011.0
20260506152801 53 36 8.7 18.2 0.68 0.80 0.80 89 1010.8
20260506151001 57 1 7.8 23.5 0.13 0.31 0.31 83 1010.8
20260506145201 63 149 11.3 20.0 0.00 0.42 0.13 76 1009.5
20260506144302 63 147 11.3 20.0 0.00 0.65 0.13 75 1009.6
20260506143401 63 146 11.3 24.3 0.00 0.65 0.13 76 1009.7
20260506141601 63 129 10.4 18.2 0.00 0.65 0.13 75 1009.7
20260506140701 63 133 9.6 15.6 0.00 0.65 0.13 74 1010.1
20260506135801 63 126 7.8 16.5 0.00 0.65 0.13 75 1010.2
20260506134901 63 140 7.8 13.0 0.00 0.65 0.13 76 1010.5
20260506131301 63 147 7.8 13.9 0.00 0.65 0.13 76 1010.9
20260506125501 63 146 7.0 13.0 0.00 0.65 0.13 76 1010.9
20260506124601 62 149 7.0 12.2 0.00 0.65 0.13 77 1011.1
20260506122801 62 123 5.2 11.3 0.06 0.68 0.13 78 1011.2
20260506121901 61 136 7.0 10.4 0.13 0.71 0.13 80 1011.2
20260506121001 61 142 7.0 13.0 0.13 0.71 0.13 78 1011.2
20260506115201 60 128 5.2 10.4 0.13 0.71 0.13 82 1011.2
20260506114301 59 130 6.1 8.7 0.13 0.71 0.13 84 1011.4
20260506113401 59 125 6.1 11.3 0.13 0.71 0.13 81 1011.5
20260506112501 62 125 6.1 11.3 0.01 0.59 0.01 76 1011.6
20260506111601 63 125 5.2 12.2 0.00 0.58 0.00 74 1011.1
20260506110701 63 130 6.1 11.3 0.00 0.58 0.00 73 1011.4
20260506104901 63 132 5.2 11.3 0.00 0.58 0.00 74 1011.6
20260506104001 63 154 3.5 10.4 0.00 0.58 0.00 75 1011.7
20260506103101 64 170 1.7 7.0 0.00 0.58 0.00 68 1011.6
20260506102201 65 236 0.9 7.0 0.00 0.58 0.00 70 1011.7
20260506101301 64 242 1.7 7.0 0.00 0.58 0.00 71 1011.7
20260506100401 63 244 0.9 7.0 0.00 0.58 0.00 72 1011.9
20260506095502 63 225 0.0 2.6 0.00 0.58 0.00 71 1012.0
20260506094601 62 223 1.7 5.2 0.00 0.58 0.00 71 1012.0
20260506093701 62 200 1.7 5.2 0.00 0.58 0.00 70 1012.0
20260506092801 63 224 0.9 4.3 0.00 0.58 0.00 69 1011.9
20260506091001 63 167 0.9 4.3 0.00 0.58 0.00 75 1011.7
20260506090101 62 159 0.9 4.3 0.00 0.58 0.00 74 1011.7
20260506085201 62 200 0.0 5.2 0.00 0.58 0.00 73 1011.7
20260506084301 62 0 0.0 0.0 0.00 0.58 0.00 74 1011.6
20260506083401 61 254 0.0 2.6 0.00 0.58 0.00 74 1011.5
20260506081601 60 169 0.9 4.3 0.00 0.58 0.00 77 1011.4
20260506073101 57 0 0.0 0.0 0.00 0.58 0.00 84 1011.3
20260506072201 56 222 0.9 2.6 0.00 0.58 0.00 86 1011.3
20260506071301 56 221 0.9 2.6 0.00 0.58 0.00 86 1011.2
20260506070401 55 218 0.9 2.6 0.00 0.58 0.00 85 1011.3
20260506062031 51 221 0.9 2.6 0.00 0.58 0.00 92 1011.3
20260506061131 50 208 0.9 3.5 0.00 0.58 0.00 92 1011.4
20260506060231 49 208 0.0 4.3 0.00 0.58 0.00 91 1011.3
20260506050831 49 212 3.5 4.3 0.00 0.58 0.00 91 1010.6
20260506045031 49 206 2.6 5.2 0.00 0.58 0.00 91 1010.4
20260506044131 49 214 1.7 4.3 0.00 0.58 0.00 91 1010.4
20260506043231 50 217 1.7 3.5 0.00 0.58 0.00 92 1010.4
20260506042331 49 215 1.7 4.3 0.00 0.58 0.00 92 1010.3
20260506041431 50 215 1.7 3.5 0.00 0.58 0.00 92 1010.2
20260506040531 50 213 3.5 5.2 0.00 0.58 0.00 92 1010.1
20260506033831 50 208 3.5 6.1 0.00 0.58 0.00 92 1010.3
20260506032031 51 204 3.5 5.2 0.00 0.58 0.00 91 1010.2
20260506031131 51 208 2.6 4.3 0.00 0.58 0.00 92 1010.1
20260506030231 51 219 2.6 4.3 0.00 0.58 0.00 92 1010.2
20260506025331 51 225 2.6 4.3 0.00 0.58 0.00 92 1010.2
20260506023531 51 226 0.0 4.3 0.00 0.58 0.00 92 1010.1
20260506022631 51 0 0.0 0.0 0.00 0.58 0.00 91 1010.1
20260506021731 51 0 0.0 0.0 0.00 0.58 0.00 92 1010.1
20260506020831 51 0 0.0 0.0 0.00 0.58 0.00 91 1010.1
20260506015931 51 0 0.0 0.0 0.00 0.58 0.00 91 1010.0
20260506015031 51 0 0.9 0.0 0.00 0.58 0.00 91 1010.1
20260506014131 52 226 0.0 3.5 0.00 0.58 0.00 91 1010.1
20260506013231 52 0 0.0 0.0 0.00 0.58 0.00 91 1010.1
20260506012331 52 0 0.0 0.0 0.00 0.58 0.00 92 1010.2
20260506011431 53 227 0.9 2.6 0.00 0.58 0.00 91 1010.1
20260506010531 53 228 0.0 3.5 0.00 0.58 0.00 91 1010.1
20260506005631 53 0 0.0 0.0 0.00 0.58 0.00 91 1010.2
20260506003831 53 231 1.7 5.2 0.00 0.58 0.00 91 1010.3
20260506002931 52 227 2.6 4.3 0.00 0.58 0.00 91 1010.4
20260506002031 52 231 1.7 3.5 0.00 0.58 0.00 91 1010.5
20260506001131 52 231 2.6 4.3 0.00 0.58 0.00 90 1010.5
20260506000231 52 228 2.6 4.3 0.00 0.58 0.00 90 1010.4
20260505235331 53 219 1.7 4.3 0.00 0.58 0.00 89 1010.5
20260505234431 52 211 0.9 2.6 0.00 0.58 0.00 89 1010.5
20260505233531 53 210 0.9 2.6 0.00 0.58 0.00 88 1010.7
20260505232631 52 209 0.9 2.6 0.00 0.58 0.00 87 1010.9
20260505231731 52 210 0.9 2.6 0.00 0.58 0.00 87 1010.9
20260505230831 53 229 1.7 3.5 0.00 0.58 0.00 86 1011.0
20260505225931 53 270 1.7 3.5 0.00 0.58 0.00 85 1010.9
20260505225031 53 274 1.7 3.5 0.00 0.58 0.00 83 1010.9
20260505224131 53 275 1.7 3.5 0.00 0.58 0.00 82 1010.9
20260505223231 53 281 2.6 3.5 0.00 0.58 0.00 82 1010.9
20260505222331 54 311 2.6 6.1 0.00 0.58 0.00 80 1011.1
20260505221431 54 318 4.3 7.0 0.00 0.59 0.00 80 1010.9
20260505220531 54 310 4.3 12.2 0.00 0.60 0.00 79 1011.0
20260505215631 54 319 3.5 12.2 0.00 0.66 0.63 80 1011.2
20260505214731 54 326 4.3 8.7 0.00 0.67 0.63 80 1011.3
20260505213831 54 339 3.5 10.4 0.00 0.67 0.63 80 1011.4
20260505212931 55 341 3.5 9.6 0.00 0.67 0.63 81 1011.3
20260505212031 55 342 1.7 7.0 0.00 0.67 0.63 81 1011.4
20260505211131 55 309 0.0 3.5 0.00 0.67 0.63 82 1011.5
20260505210231 54 313 0.0 1.7 0.00 0.67 0.63 83 1011.6
20260505205331 54 312 0.9 2.6 0.00 0.67 0.63 83 1011.2
20260505204431 54 300 2.6 4.3 0.00 0.67 0.63 83 1010.9
20260505203531 54 278 4.3 9.6 0.00 0.67 0.63 84 1010.9
20260505202631 54 262 5.2 9.6 0.00 0.67 0.63 85 1010.9
20260505201731 54 331 5.2 13.0 0.00 0.67 0.63 85 1010.7
20260505195931 54 318 2.6 9.6 0.00 0.67 0.63 88 1010.8
20260505195031 54 293 2.6 5.2 0.00 0.67 0.63 88 1010.8
20260505193231 54 355 2.6 5.2 0.00 0.67 0.63 88 1010.5
20260505185631 55 303 7.0 12.2 0.00 0.67 0.63 85 1010.7
20260505184731 56 7 4.3 15.6 0.00 0.67 0.63 86 1010.4
20260505182930 60 112 3.5 4.3 0.00 0.67 0.63 90 1009.5
20260505182030 60 124 4.3 7.8 0.00 0.67 0.63 90 1009.2
20260505181130 60 125 4.3 10.4 0.00 0.67 0.63 89 1009.2
20260505175330 60 112 2.6 7.0 0.00 0.67 0.63 88 1009.3
20260505173530 60 105 3.5 7.0 0.00 0.67 0.63 87 1009.2
20260505172631 60 105 3.5 8.7 0.00 0.67 0.63 87 1009.2
20260505165930 61 120 4.3 9.6 0.00 0.67 0.63 87 1009.1
20260505165031 60 124 5.2 8.7 0.00 0.67 0.63 87 1009.2